Terminal Aerodrome Forecast
Issued by NWS

Home | Current Version | Previous Version | Graphics & Text | Print | Product List | Glossary On
Versions: 1 2 3 4 5 6 7 8 9 10 11 12 13 14 15 16 17
000
FTUS43 KICT 110500
TAFHUT
TAF
KHUT 110522Z 1106/1206 15013KT P6SM SKC
     FM111500 19015G22KT P6SM SKC
     FM120100 17011KT P6SM SKC=

USA.gov is the U.S. government's official web portal to all federal, state and local government web resources and services.